SCP
4 4 4 4 3 3 3 3 3 3 2 2 2 2 2 2 2 2 2 2 2 2 2 2 2 1 1 1 1 2 2 2 2 2 2 2 2 2 2 2 2 1 1
4 4 4 4 3 3 3 2 2 2 2 2 2 2 2 2 3 3 2 2 2 2 2 2 2 2 2 1 1 1 2 2 2 2 2 2 2 2 2 2 2 1 1
4 4 4 3 3 3 3 2 2 2 2 1 1 1 2 2 3 3 3 2 2 2 2 2 2 2 2 1 1 2 2 2 2 2 2 2 2 2 2 2 2 2 1
3 3 3 3 3 2 2 2 2 1 1 1 1 1 2 2 3 3 3 3 2 2 2 2 1 2 2 2 2 2 2 2 2 2 2 2 2 2 2 2 2 2 2
2 2 2 2 2 2 2 2 2 1 1 1 1 1 1 2 2 2 2 2 2 1 1 1 1 1 2 2 1 2 2 2 2 3 3 3 2 2 2 2 2 2 2
2 1 1 1 1 1 2 2 2 1 1 1 1 1 1 1 1 1 1 1 1 1 1 1 1 1 2 2 1 1 1 2 2 2 3 3 3 2 2 2 2 2 2
1 1 1 1 1 1 1 1 1 1 1 1 1 1 1 1 1 1 1 1 1 1 1 1 1 1 1 1 1 1 1 1 2 2 3 3 3 3 2 2 2 2 2
1 1 1 1 1 1 1 1 1 1 1 1 1 1 1 1 1 1 1 1 1 1 1 1 1 1 1 1 1 1 1 1 2 2 3 3 3 3 2 2 2 2 2
1 1 1 1 1 1 0 1 1 1 1 1 0 0 1 1 1 1 2 1 1 1 1 1 1 1 1 1 1 1 1 1 2 2 2 3 3 3 3 2 2 2 2
1 1 1 1 1 0 0 0 1 1 1 1 1 0 0 1 1 1 1 1 1 1 1 1 1 1 1 1 1 1 1 1 1 1 2 2 3 3 3 3 2 2 2
0 0 1 1 1 1 0 0 0 1 1 1 1 0 0 0 0 1 1 1 1 1 1 1 1 1 1 1 1 1 1 1 1 1 1 2 3 3 3 3 3 2 2
0 0 0 1 1 1 0 0 0 1 1 1 1 0 0 0 0 0 0 1 1 1 1 1 2 2 2 1 1 1 1 1 1 1 1 1 2 2 3 3 3 3 2
0 0 0 1 1 1 0 0 0 1 1 1 1 1 0 0 0 0 0 0 1 1 1 1 2 2 2 2 1 1 1 1 1 1 1 1 1 2 2 3 3 3 2
0 0 0 0 1 1 0 0 0 0 1 1 1 1 1 1 0 0 0 0 0 1 1 1 2 2 2 2 1 1 1 1 0 0 0 0 1 1 1 2 2 2 2
0 0 0 0 0 0 1 0 0 0 0 0 1 1 1 1 1 0 0 0 1 0 0 1 1 2 2 2 1 1 1 0 0 0 0 0 0 0 1 1 2 2 2
0 0 0 0 0 0 1 1 0 0 0 0 0 1 1 1 1 0 0 0 1 0 0 0 1 1 1 1 1 1 1 0 0 0 0 0 0 0 0 1 1 2 2
0 0 0 0 0 0 0 0 0 0 0 0 0 0 1 1 1 0 0 0 0 0 0 0 0 1 1 1 1 1 1 1 0 0 0 0 0 0 0 0 1 1 1
0 0 0 0 0 0 0 0 0 0 0 0 0 0 0 0 0 0 0 0 0 0 0 0 0 1 1 1 1 1 1 1 0 0 0 0 0 0 0 0 0 0 0
0 0 0 0 0 0 0 0 0 0 0 0 0 0 0 0 0 0 0 0 0 0 0 0 0 0 1 1 1 1 1 1 0 0 0 0 0 0 0 0 0 0 0
0 0 0 0 0 0 0 0 0 0 0 0 0 0 0 0 0 0 0 0 0 0 0 0 0 0 0 1 1 1 1 0 0 0 0 0 0 0 0 0 0 0 0
0 0 0 0 0 0 0 0 0 0 0 0 0 0 0 0 0 0 0 0 0 0 0 0 0 0 0 0 1 1 1 0 0 0 0 0 0 0 0 0 0 0 0
1 1 0 0 0 0 0 0 0 0 0 0 0 0 0 0 0 0 0 0 0 0 0 0 0 0 0 0 1 1 1 1 0 0 0 0 0 0 0 0 0 0 0
2 2 1 1 0 0 0 0 0 0 0 0 0 0 0 0 0 0 0 0 0 0 0 0 0 0 0 0 0 1 1 1 1 0 0 0 0 0 0 0 0 0 0
3 2 2 1 1 0 0 0 0 0 0 0 0 0 0 0 0 0 0 0 0 0 0 0 0 0 0 0 0 1 1 1 1 1 1 0 0 0 0 0 0 0 0
3 3 3 2 2 1 0 0 0 0 0 0 0 0 0 0 0 0 0 0 0 0 0 0 0 0 0 0 0 1 1 1 0 0 0 0 0 0 0 0 0 0 0
3 3 3 3 3 2 1 0 0 0 0 0 0 0 0 0 0 0 0 0 0 0 0 0 0 0 0 0 0 0 1 1 0 0 0 0 0 0 0 0 0 0 0
Wind_Speed
2 1 1 1 2 2 2 2 2 2 2 3 3 3 4 4 4 4 3 7 8 9 9 10 10 10 10 10 11 11 11 12 11 11 11 11 10 10 11 12 12 12 12
2 2 2 2 2 2 2 2 3 3 2 2 3 4 4 4 4 4 4 5 8 8 8 9 10 11 11 11 11 11 12 12 12 11 11 12 11 11 11 12 12 13 13
3 3 2 2 3 2 3 2 2 2 2 2 3 3 3 3 4 5 5 4 4 7 8 8 8 9 10 11 11 12 12 11 11 12 12 12 12 12 12 12 12 12 12
3 3 3 3 3 2 2 2 2 2 2 2 2 3 3 3 4 5 4 4 4 4 5 7 8 8 8 9 10 11 11 11 12 11 12 12 12 12 12 12 12 12 12
3 2 2 2 2 2 2 2 2 2 2 3 3 3 2 3 3 4 4 4 4 4 3 5 7 8 9 10 10 10 10 10 10 10 11 11 11 11 11 11 11 12 12
2 2 2 2 2 2 2 2 2 2 2 2 3 3 2 3 2 3 4 3 3 4 4 3 3 5 7 9 9 10 11 10 10 9 10 11 11 11 11 12 12 12 12
2 2 2 2 2 2 3 3 2 2 1 1 1 2 2 2 2 2 2 2 3 3 3 3 3 3 3 6 8 9 10 11 10 10 10 9 9 10 10 11 12 12 12
3 3 2 2 2 2 2 2 2 2 1 2 2 1 1 2 2 2 2 2 3 2 2 3 3 3 3 2 5 8 9 9 10 9 9 9 9 10 10 10 11 12 12
2 2 3 3 2 2 2 3 3 3 2 2 2 3 2 3 2 1 2 2 2 2 2 2 3 3 3 3 3 5 7 7 8 9 8 7 8 8 8 9 11 12 12
3 3 3 3 2 2 2 3 3 3 3 2 2 2 2 2 2 1 1 1 2 2 2 2 3 3 3 2 3 3 4 5 6 7 7 8 8 8 8 9 10 11 12
3 3 2 2 2 2 3 3 3 4 3 3 3 2 2 2 2 2 2 2 1 2 2 2 2 2 3 3 3 3 4 4 4 6 7 7 8 8 8 8 9 10 11
3 3 2 2 3 2 3 3 3 4 4 4 3 3 3 2 3 3 3 2 2 2 2 2 3 3 3 3 4 4 4 4 5 6 6 7 7 8 8 9 10 10 11
3 3 3 3 3 3 3 3 3 4 4 5 5 4 3 3 2 2 2 2 2 1 2 2 2 2 2 2 3 5 5 5 5 5 6 6 7 7 8 9 10 10 10
4 4 4 4 4 3 3 3 3 4 4 4 5 4 3 3 3 3 3 3 1 2 2 3 2 3 2 2 3 4 3 5 6 6 6 6 7 7 8 8 8 8 9
3 4 4 4 3 3 3 3 3 4 4 4 4 4 3 3 3 3 3 3 3 3 3 3 2 2 2 3 3 3 3 4 6 6 6 7 7 7 7 7 7 7 8
3 3 3 3 3 3 3 3 3 3 4 4 4 4 3 3 3 3 3 3 3 3 3 3 3 2 3 3 3 3 4 5 5 6 6 7 7 7 7 8 7 7 8
3 3 4 3 3 3 3 3 3 3 4 4 4 4 4 3 3 3 2 3 3 3 4 3 2 2 3 3 3 3 3 3 3 5 6 6 6 6 7 8 8 8 8
3 3 3 3 3 3 3 3 4 4 4 4 4 4 5 4 4 3 3 3 3 4 4 3 2 2 3 3 3 3 3 3 3 5 6 6 6 6 7 7 8 8 8
3 3 3 3 3 3 3 3 3 3 3 4 5 5 5 5 5 4 4 4 3 3 3 3 3 2 2 2 2 2 3 2 3 4 5 6 7 7 7 7 8 8 8
3 4 3 4 4 3 3 3 3 4 4 4 5 5 6 6 6 5 4 4 3 3 3 3 3 2 2 2 2 2 2 2 3 3 3 4 5 6 6 7 8 8 8
3 3 3 3 3 3 3 3 4 4 4 4 4 5 6 7 8 6 5 5 4 4 3 3 3 2 2 2 2 2 3 3 3 3 2 2 2 2 3 5 7 7 7
3 3 3 3 3 3 4 5 4 4 4 4 4 4 4 5 6 7 8 7 7 6 5 4 3 4 4 4 3 3 2 2 3 2 2 3 2 3 3 3 4 6 6
3 3 3 3 3 4 5 5 5 4 3 3 4 3 3 4 5 4 5 6 6 7 8 6 6 6 5 5 4 3 3 3 4 2 1 3 2 3 3 3 4 5 5
3 3 4 3 3 5 5 4 4 2 3 3 4 4 4 4 3 4 3 3 3 4 6 5 6 6 5 5 5 4 4 3 3 2 2 3 2 3 3 3 3 4 4
3 3 3 3 3 5 5 4 3 1 1 2 2 2 3 3 3 3 3 3 3 3 3 5 6 6 6 6 5 3 2 2 2 2 1 2 2 2 2 2 2 3 4
2 3 3 3 3 4 5 4 3 1 2 2 2 2 3 3 3 3 3 3 4 4 2 2 2 3 3 4 5 5 4 3 2 2 2 2 2 1 2 1 1 2 2
Wind_Direction
197 196 215 225 225 212 200 214 208 217 229 236 236 233 235 233 236 239 253 259 256 253 252 245 238 235 231 225 224 224 222 224 226 226 226 224 223 220 217 215 215 215 215
187 193 210 229 226 218 205 201 208 212 229 233 240 241 243 242 243 244 247 259 259 256 253 250 245 241 237 232 230 228 227 228 228 227 227 225 225 224 221 219 218 217 216
188 199 204 224 232 224 207 194 203 203 224 229 239 248 246 243 244 246 247 245 254 256 254 251 245 241 239 237 236 236 234 230 230 230 229 227 225 225 224 224 223 221 219
203 207 212 220 223 207 194 190 191 205 237 239 246 252 248 243 246 248 245 242 241 247 251 250 246 244 242 238 237 238 238 232 230 232 231 229 227 226 225 226 226 224 222
211 208 218 221 205 195 194 198 180 190 230 242 244 249 250 248 252 256 248 242 237 234 239 251 253 250 247 243 243 242 240 237 234 234 233 232 230 228 227 226 226 226 224
222 211 221 225 201 192 198 197 188 196 211 233 251 267 265 257 250 247 248 244 239 237 236 241 248 256 253 250 249 246 244 242 241 238 238 235 231 230 230 230 227 227 226
221 211 229 225 203 199 208 199 185 197 216 184 175 293 292 268 246 240 245 245 246 244 233 232 234 241 255 255 254 250 249 251 249 245 240 240 236 234 232 232 230 228 228
221 213 209 217 215 207 209 198 183 187 211 170 158 164 303 303 273 248 239 233 244 241 239 238 237 237 243 250 258 256 257 257 254 250 246 244 242 240 237 234 234 231 230
238 229 218 214 220 206 212 215 197 186 203 199 171 167 185 230 271 278 245 238 234 227 244 242 236 238 234 232 251 262 261 258 257 254 250 248 246 245 244 240 241 238 234
251 240 232 218 211 209 211 219 205 200 184 200 206 203 206 196 196 261 278 244 233 234 242 240 238 235 235 234 238 255 266 260 256 257 253 250 250 250 248 247 247 245 241
266 251 236 226 219 215 220 214 208 202 193 195 195 192 205 223 216 207 255 269 260 247 241 237 238 240 239 237 237 248 255 257 264 265 261 255 252 255 256 256 253 249 246
272 260 241 232 230 223 224 227 216 206 201 202 202 195 190 190 204 201 224 245 255 264 256 239 234 238 240 241 246 261 256 258 262 266 267 262 255 255 257 259 257 255 252
273 267 255 241 235 230 228 224 216 214 204 202 207 207 206 210 192 190 199 225 247 274 276 260 247 245 247 249 254 267 261 261 260 261 264 264 262 261 262 263 262 259 257
261 260 253 243 235 229 229 216 215 215 206 208 210 206 208 213 201 194 190 186 227 273 264 260 262 247 256 257 252 252 253 260 264 262 261 260 262 263 264 264 266 265 262
258 256 249 246 241 229 223 211 216 219 208 208 209 207 208 209 205 203 202 194 191 236 263 251 246 246 252 253 253 250 251 264 269 268 264 260 259 260 259 258 259 262 264
255 257 257 250 247 237 223 213 216 219 208 210 207 204 208 208 204 199 201 208 203 206 244 244 235 249 265 263 262 257 258 267 265 264 264 261 255 253 253 254 257 259 262
265 261 261 259 252 245 226 213 221 215 210 214 211 205 215 209 205 203 200 203 203 197 227 252 237 244 243 256 276 269 259 255 258 257 259 257 251 249 251 252 254 257 257
277 267 265 263 249 243 228 219 227 221 213 217 217 209 216 207 209 207 201 206 208 203 208 237 247 249 246 253 261 272 278 268 262 259 253 249 249 247 247 248 251 255 255
281 275 259 254 248 240 235 232 229 230 226 225 221 215 217 204 210 211 207 210 212 210 206 216 243 247 256 261 270 277 278 278 276 266 252 250 252 253 251 249 250 250 252
283 281 262 255 250 243 243 242 234 235 236 237 230 222 218 210 210 208 209 212 208 210 208 215 237 251 254 265 254 267 289 294 290 286 272 264 258 256 253 252 250 247 247
300 289 279 268 260 253 254 246 233 232 232 241 238 229 224 218 215 210 209 206 201 206 210 217 233 244 250 250 250 248 261 285 278 264 273 277 268 266 259 252 249 247 246
317 312 299 279 273 268 269 253 240 236 237 238 241 238 231 225 224 219 218 211 200 201 209 214 224 231 241 241 239 239 241 261 274 247 257 279 261 265 267 260 252 247 246
313 312 302 298 287 284 279 273 260 235 232 234 238 243 244 232 217 216 225 226 222 222 215 209 216 228 230 228 223 240 244 248 257 256 244 274 270 270 270 267 259 254 254
303 298 299 297 293 294 287 277 267 244 243 244 234 228 232 243 228 208 207 220 235 238 232 224 224 232 233 229 220 228 240 253 266 263 226 258 274 276 284 277 262 254 258
309 302 301 301 296 298 293 273 257 230 245 264 260 241 228 236 244 213 197 215 243 267 259 240 236 239 236 230 217 201 211 223 269 278 230 234 269 288 283 271 269 259 255
295 306 312 305 297 295 295 284 250 211 232 258 274 262 239 234 239 212 204 210 231 251 262 278 271 254 240 233 219 210 207 211 241 264 220 218 252 288 283 255 273 298 281